FENGYUN 2E

Last updated on Jan. 27, 2020, 4:38 a.m. UTC

1 33463U 08066A   20026.57853351 -.00000210  00000-0  00000-0 0  9990
2 33463   4.0453  68.8874 0004719 282.1060  69.3823  1.00267787 40685
UTC
Height (km)
Latitude
Longitude
Inclination
Orbital Period
UTC large
Height (km)
Speed (km/s)
/
Latitude / Longitude
Inclination (degrees)
Orbital Period (minutes)
Azimuth
Elevation
Range (km)
Doppler Factor
iOS Compass Heading
iOS Angle

Next 30 passes for location: Hong Kong

Rise time Rise Azimuth (degrees) Set time Set Azimuth (degrees) Duration Max altitude (degrees)

No matching passes for this satellites